FW1555 Weather Reports


Display with metric or nautical units.
time (UTC)temp
F
wind
direction
speed
MPH
gust
MPH
rain 1hr
in
rain 24hr
in
rain mn
in
humidity
%
barometer
mb
20260506093044 63 0 0.0 6.0 0.00 0.00 0.00 83 1008.9
20260506091552 63 0 0.0 7.0 0.00 0.00 0.00 82 1008.8
20260506090047 63 0 0.0 5.0 0.00 0.00 0.00 82 1008.9
20260506084546 63 0 1.0 8.0 0.00 0.00 0.00 81 1009.1
20260506083048 64 0 0.0 5.0 0.00 0.00 0.00 80 1009.2
20260506081548 64 0 0.0 6.0 0.00 0.00 0.00 79 1009.1
20260506073048 66 0 0.0 9.0 0.00 0.00 0.00 76 1009.1
20260506071555 66 0 1.0 10.0 0.00 0.00 0.00 75 1009.3
20260506061547 66 0 1.0 8.0 0.00 0.00 0.00 72 1009.3
20260506044548 68 250 4.0 15.0 0.00 0.00 0.00 66 1009.8
20260506043045 68 169 2.0 11.0 0.00 0.00 0.00 66 1009.8
20260506041553 68 194 1.0 9.0 0.00 0.00 0.00 65 1009.8
20260506040044 68 194 1.0 11.0 0.00 0.00 0.00 65 1009.7
20260506034547 68 0 0.0 7.0 0.00 0.00 0.00 66 1009.8
20260506033046 68 0 1.0 8.0 0.00 0.00 0.00 65 1009.7
20260506031542 69 0 1.0 9.0 0.00 0.00 0.00 64 1009.6
20260506030057 69 198 1.0 8.0 0.00 0.00 0.00 63 1009.5
20260506024554 70 175 1.0 10.0 0.00 0.00 0.00 62 1009.6
20260506023047 71 0 1.0 10.0 0.00 0.00 0.00 60 1009.6
20260506021544 71 144 1.0 11.0 0.00 0.00 0.00 60 1009.5
20260506020047 70 258 1.0 11.0 0.00 0.00 0.00 60 1009.4
20260506014556 71 0 0.0 8.0 0.00 0.00 0.00 57 1009.3
20260506013048 74 0 1.0 12.0 0.00 0.00 0.00 52 1009.0
20260506011551 76 239 3.0 11.0 0.00 0.00 0.00 46 1008.7
20260506010056 77 230 4.0 14.0 0.00 0.00 0.00 44 1008.6
20260506004553 77 0 1.0 13.0 0.00 0.00 0.00 41 1008.5
20260506003046 78 0 1.0 11.0 0.00 0.00 0.00 39 1008.3
20260506001553 78 216 3.0 13.0 0.00 0.00 0.00 39 1008.0
20260506000058 78 269 3.0 15.0 0.00 0.00 0.00 38 1008.0
20260505234543 79 0 6.0 17.0 0.00 0.00 0.00 37 1007.9
20260505233048 79 0 2.0 12.0 0.00 0.00 0.00 36 1007.7
20260505231547 79 199 1.0 11.0 0.00 0.00 0.00 35 1007.5
20260505230050 80 267 8.0 22.0 0.00 0.00 0.00 34 1007.3
20260505224550 81 266 8.0 18.0 0.00 0.00 0.00 34 1007.0
20260505223052 81 200 12.0 22.0 0.00 0.00 0.00 33 1006.9
20260505221548 82 248 5.0 21.0 0.00 0.00 0.00 33 1006.8
20260505220047 81 222 9.0 25.0 0.00 0.00 0.00 35 1006.9
20260505214543 82 281 3.0 16.0 0.00 0.00 0.00 34 1006.6
20260505213051 83 189 5.0 20.0 0.00 0.00 0.00 34 1006.4
20260505211547 83 228 7.0 15.0 0.00 0.00 0.00 34 1006.4
20260505210049 83 225 7.0 19.0 0.00 0.00 0.00 34 1006.2
20260505204546 83 243 10.0 19.0 0.00 0.00 0.00 33 1006.3
20260505203050 83 254 5.0 21.0 0.00 0.00 0.00 34 1006.6
20260505201547 83 248 7.0 23.0 0.00 0.00 0.00 33 1006.6
20260505200041 83 252 9.0 20.0 0.00 0.00 0.00 34 1006.7
20260505194556 83 243 7.0 28.0 0.00 0.00 0.00 34 1006.8
20260505193103 83 293 6.0 20.0 0.00 0.00 0.00 37 1007.2
20260505191547 83 274 8.0 26.0 0.00 0.00 0.00 37 1007.2
20260505190044 83 251 8.0 28.0 0.00 0.00 0.00 36 1007.4
20260505184554 82 259 10.0 29.0 0.00 0.00 0.00 37 1007.8
20260505183049 81 199 3.0 11.0 0.00 0.00 0.00 47 1007.9
20260505181540 82 161 6.0 15.0 0.00 0.00 0.00 45 1008.0
20260505180047 81 220 5.0 16.0 0.00 0.00 0.00 45 1008.2
20260505174542 81 232 4.0 14.0 0.00 0.00 0.00 47 1008.2
20260505173049 81 194 3.0 17.0 0.00 0.00 0.00 47 1008.5
20260505171554 80 273 4.0 11.0 0.00 0.00 0.00 48 1008.6
20260505170051 79 237 4.0 15.0 0.00 0.00 0.00 48 1008.6
20260505164549 79 254 3.0 17.0 0.00 0.00 0.00 49 1009.0
20260505163049 78 134 3.0 12.0 0.00 0.00 0.00 50 1009.2
20260505161549 77 283 4.0 14.0 0.00 0.00 0.00 51 1009.3
20260505153049 75 252 3.0 12.0 0.00 0.00 0.00 55 1009.8
20260505151550 75 146 3.0 10.0 0.00 0.00 0.00 55 1009.9
20260505130114 64 231 3.0 10.0 0.00 0.00 0.00 73 1010.2
20260505124604 63 0 1.0 7.0 0.00 0.00 0.00 74 1010.0
20260505123113 62 173 1.0 11.0 0.00 0.00 0.00 76 1010.3
20260505121549 61 0 0.0 5.0 0.00 0.00 0.00 79 1010.4
20260505120056 59 0 1.0 6.0 0.00 0.00 0.00 81 1010.2
20260505114551 57 0 0.0 0.0 0.00 0.00 0.00 82 1010.1
20260505113053 57 0 0.0 1.0 0.00 0.00 0.00 81 1010.2
20260505111550 57 0 0.0 5.0 0.00 0.00 0.00 80 1011.0
20260505101545 55 0 0.0 0.0 0.00 0.00 0.00 82 1010.3
20260505100053 55 0 0.0 0.0 0.00 0.00 0.00 81 1009.9
20260505094554 55 0 0.0 0.0 0.00 0.00 0.00 80 1009.7